Find Kosmos-946

NORAD ID: 10292 Int'l Des: 1977-079 Owner: GUKOSR Country: SU operational
LEOCIRCULAR

Live Position

Loading 3D Globe...

About Kosmos-946

Description loading...

Upcoming Passes

Passes for default location (London). Set your location on the main map for personalized predictions.

Altitude History

Loading altitude history...

Two-Line Element Set

1 10292U 77079H 26106.19657009 -.00000023 00000-0 -55029-4 0 9998
2 10292 74.0224 267.9530 0030431 120.6182 62.1304 12.44919546191189
Epoch: Apr 16, 2026 • Age: 9 hours

Current Status

Altitude 1494.6 km
Velocity 7.11 km/s
Sub-Earth Point 11.99°N, 135.51°W
Launch Date Aug 24, 1977
Age 48.6 years
Type other

Technical Details

Classification Payload
Mass 60.00 kg
Dry Mass 60.00 kg
Total Mass 60.00 kg
Length 0.80 m
Diameter 0.80 m
Span 0.80 m
Shape Poly
Manufacturer NPOPM
Bus Type Strela-1 11F625
Phase Status In Orbit
Owner/State GUKOSR/SU

Most Searched